Weather History for Coolangatta Airport Aws, Queensland

Change the Weather History Date:

Wednesday, May 29, 2013

  Actual Average Record
Temperature  
Mean Temperature 65 °F -  
Max Temperature 71 °F - - ()
Min Temperature 59 °F - - ()
Growing Degree Days 15 (Base 50)    
Moisture  
Dew Point 57 °F    
Average Humidity 75    
Maximum Humidity 94    
Minimum Humidity 49    
Precipitation  
Precipitation 0.31 in - - ()
Sea Level Pressure  
Sea Level Pressure 30.41 in    
Wind  
Wind Speed 10 mph ()    
Max Wind Speed 17 mph    
Max Gust Speed 29 mph    
Visibility 5.6 miles    
Events      
T = Trace of Precipitation, MM = Missing Value Source: Averaged Metar Reports

Daily Weather History Graph

Daily Weather History Graph

Search for Another Location

Airport:

Trip Planner

Search our weather history database for the weather conditions in past years. The results will help you decide how hot, cold, wet, or windy it might be!

Date:

Astronomy

May. 29, 2013 Rise Set
Actual Time 6:28 AM EST 4:58 PM EST
Civil Twilight 6:02 AM EST 5:23 PM EST
Nautical Twilight 5:33 AM EST 5:52 PM EST
Astronomical Twilight 5:05 AM EST 6:21 PM EST
Moon 9:26 PM EST (5/29) 10:01 AM EST (5/29)
Length of Visible Light 11h 21m
Length of Day
10h 30m
Waning Gibbous, 79% of the Moon is Illuminated
May 29
Waning Gibbous
Jun 1
Last Quarter
Jun 9
New
Jun 17
First Quarter
Jun 23
Full

Hourly Weather History & Observations

Time (EST) Temp. Dew Point Humidity Pressure Visibility Wind Dir Wind Speed Gust Speed Precip Events Conditions
12:00 AM 67 °F 52 °F 49% 30.41 in - ESE 13.8 mph - -  
12:00 AM 66.2 °F 51.8 °F 60% 30.39 in 6.2 mi ESE 13.8 mph - N/A   Mostly Cloudy
1:00 AM 66.2 °F 50.0 °F 56% 30.39 in 6.2 mi ESE 12.7 mph - N/A   Mostly Cloudy
2:00 AM 62.6 °F 51.8 °F 68% 30.39 in 6.2 mi South 8.1 mph - N/A   Scattered Clouds
3:00 AM 62 °F 55 °F 71% 30.40 in - South 9.2 mph - -   Overcast
3:00 AM 62.6 °F 55.4 °F 77% 30.39 in 6.2 mi South 9.2 mph - N/A   Overcast
4:00 AM 60.8 °F 57.2 °F 88% 30.36 in 6.2 mi South 5.8 mph - N/A   Mostly Cloudy
5:00 AM 62.6 °F 55.4 °F 77% 30.39 in 6.2 mi South 10.4 mph - N/A   Overcast
6:00 AM 61 °F 56 °F 77% 30.42 in - SSE 8.1 mph - -   Overcast
6:00 AM 60.8 °F 55.4 °F 82% 30.42 in 6.2 mi SSE 8.1 mph - N/A   Mostly Cloudy
7:00 AM 62.6 °F 57.2 °F 82% 30.42 in 5.6 mi South 11.5 mph - N/A   Overcast
7:08 AM 60.8 °F 57.2 °F 88% 30.42 in 3.7 mi SSE 9.2 mph - N/A   Overcast
7:26 AM 60.8 °F 59.0 °F 94% 30.42 in 6.2 mi South 6.9 mph - N/A   Overcast
8:00 AM 62.6 °F 57.2 °F 82% 30.42 in 6.2 mi South 5.8 mph - N/A   Scattered Clouds
9:00 AM 64 °F 57 °F 71% 30.45 in - South 8.1 mph - -  
9:00 AM 64.4 °F 57.2 °F 77% 30.45 in 6.2 mi South 8.1 mph - N/A   Mostly Cloudy
10:00 AM 68.0 °F 57.2 °F 68% 30.45 in 6.2 mi South 6.9 mph - N/A   Scattered Clouds
10:30 AM 68.0 °F 55.4 °F 64% 30.45 in 6.2 mi South 8.1 mph - N/A   Scattered Clouds
11:00 AM 69.8 °F 53.6 °F 56% 30.42 in 6.2 mi South 8.1 mph - N/A   Mostly Cloudy
11:30 AM 71.6 °F 59.0 °F 64% 30.42 in 6.2 mi SE 13.8 mph - N/A   Mostly Cloudy
12:00 PM 70 °F 56 °F 51% 30.43 in - SE 15.0 mph - -  
12:00 PM 69.8 °F 55.4 °F 60% 30.42 in 6.2 mi SE 15.0 mph - N/A   Scattered Clouds
12:10 PM 64.4 °F 59.0 °F 83% 30.42 in 3.7 mi SE 16.1 mph 28.8 mph N/A   Mostly Cloudy
12:11 PM 64.4 °F 57.2 °F 77% 30.42 in 3.7 mi SE 17.3 mph 28.8 mph N/A   Mostly Cloudy
12:28 PM 68.0 °F 60.8 °F 78% 30.42 in 6.2 mi SSE 10.4 mph - N/A   Scattered Clouds
12:30 PM 68.0 °F 60.8 °F 78% 30.42 in 6.2 mi SSE 10.4 mph - N/A   Scattered Clouds
1:00 PM 71.6 °F 57.2 °F 60% 30.39 in 6.2 mi SE 11.5 mph - N/A   Mostly Cloudy
1:30 PM 71.6 °F 55.4 °F 57% 30.39 in 6.2 mi SE 11.5 mph - N/A   Scattered Clouds
2:00 PM 69.8 °F 55.4 °F 60% 30.39 in 6.2 mi SE 10.4 mph - N/A   Scattered Clouds
2:30 PM 69.8 °F 55.4 °F 60% 30.39 in 6.2 mi South 9.2 mph - N/A   Scattered Clouds
3:00 PM 71 °F 57 °F 51% 30.38 in - East 12.7 mph - -   Overcast
3:00 PM 71.6 °F 57.2 °F 60% 30.36 in 6.2 mi East 12.7 mph - N/A   Mostly Cloudy
3:30 PM 68.0 °F 57.2 °F 68% 30.36 in 6.2 mi East 12.7 mph - N/A   Mostly Cloudy
4:00 PM 68.0 °F 55.4 °F 64% 30.39 in 6.2 mi ESE 12.7 mph - N/A   Scattered Clouds
4:30 PM 68.0 °F 55.4 °F 64% 30.39 in 6.2 mi ESE 12.7 mph - N/A   Mostly Cloudy
5:00 PM 66.2 °F 55.4 °F 68% 30.39 in 6.2 mi East 11.5 mph - N/A   Scattered Clouds
5:30 PM 66.2 °F 57.2 °F 73% 30.39 in 6.2 mi East 12.7 mph - N/A   Mostly Cloudy
6:00 PM 65 °F 57 °F 69% 30.40 in - East 17.3 mph - -   Overcast
6:00 PM 64.4 °F 57.2 °F 77% 30.39 in 6.2 mi East 17.3 mph - N/A   Mostly Cloudy
6:30 PM 64.4 °F 57.2 °F 77% 30.39 in 6.2 mi ESE 5.8 mph - N/A   Overcast
7:00 PM 64.4 °F 59.0 °F 83% 30.42 in 6.2 mi SE 13.8 mph - N/A   Overcast
7:30 PM 62.6 °F 57.2 °F 82% 30.42 in 6.2 mi SSE 9.2 mph - N/A   Mostly Cloudy
8:00 PM 60.8 °F 57.2 °F 88% 30.42 in 6.2 mi South 5.8 mph - N/A   Unknown
8:30 PM 64.4 °F 59.0 °F 83% 30.42 in 6.2 mi SE 12.7 mph - N/A   Mostly Cloudy
9:00 PM 63 °F 58 °F 79% 30.42 in - SSE 11.5 mph - -   Overcast
9:00 PM 62.6 °F 59.0 °F 88% 30.42 in 6.2 mi SSE 11.5 mph - N/A   Overcast
9:30 PM 62.6 °F 59.0 °F 88% 30.42 in 3.1 mi ENE 4.6 mph - N/A   Overcast
9:41 PM 60.8 °F 59.0 °F 94% 30.42 in 1.0 mi NNW 4.6 mph - N/A   Overcast
9:55 PM 60.8 °F 59.0 °F 94% 30.42 in 1.4 mi North 3.5 mph - N/A   Overcast
10:00 PM 60.8 °F 59.0 °F 94% 30.42 in 0.9 mi NNW 2.3 mph - N/A   Overcast
10:30 PM 60.8 °F 59.0 °F 94% 30.42 in 6.2 mi West 5.8 mph - N/A   Overcast
10:33 PM 60.8 °F 59.0 °F 94% 30.42 in 5.6 mi West 5.8 mph - N/A   Overcast
10:35 PM 60.8 °F 59.0 °F 94% 30.42 in 3.1 mi West 5.8 mph - N/A   Overcast
10:55 PM 60.8 °F 59.0 °F 94% 30.39 in 6.2 mi WSW 8.1 mph - N/A   Overcast
11:00 PM 60.8 °F 59.0 °F 94% 30.39 in 6.2 mi WSW 6.9 mph - N/A   Overcast
11:30 PM 60.8 °F 59.0 °F 94% 30.39 in 6.2 mi SW 5.8 mph - N/A   Mostly Cloudy